Regional Weather Roundup
Issued by NWS Wakefield, VA

Home | Current Version | Previous Version | Text Only | Print | Product List | Glossary On
Versions: 1 2 3 4 5 6 7 8 9 10 11 12 13 14 15 16 17 18 19 20 21 22 23 24 25 26 27 28 29 30 31 32 33 34 35 36 37 38 39 40 41 42 43 44 45 46 47 48 49
000
ASUS41 KAKQ 012010
RWRAKQ

REGIONAL WEATHER ROUNDUP
NATIONAL WEATHER SERVICE WAKEFIELD VA
400 PM EDT WED OCT 01 2014

Note: "fair" indicates few or no clouds below 12,000 feet with no
significant weather and/or obstructions to visibility. * = Denotes
station may not report precipitation (e.g., rain,snow,etc.),
thunder or fog.

VAZ042-051-052>054-056-012100-
NORTHERN VIRGINIA

CITY           SKY/WX    TMP DP  RH WIND       PRES   REMARKS
WASH NATIONAL  MOSUNNY   75  59  57 NE6       30.01F
DULLES         PTSUNNY   71  59  65 E5        30.01F
FORT BELVOIR   MOSUNNY   72  60  66 VRB1      30.01F
QUANTICO       MOSUNNY   73  59  61 N8        30.01F
FREDERICKSBRG* MOSUNNY   75  60  60 N3        29.99S
STAFFORD*      CLOUDY    74  62  64 E6        30.05S
WARRENTON      CLOUDY    75  67  76 NE9       30.00F
CULPEPER*      MOSUNNY   75  61  60 SE3       30.01F
MANASSAS*      NOT AVBL
LEESBURG*      PTSUNNY   72  63  73 NE5       30.03S
WINCHESTER     MOSUNNY   70  61  73 E6        30.02F
FRONT ROYAL*   MOCLDY    70  61  73 N5        30.01S
LURAY*         CLOUDY    73  63  68 NE5       30.01S
$$

VAZ048-049-060>072-079>083-012100-
CENTRAL AND SOUTH CENTRAL VIRGINIA...AND NORTH CENTRAL NORTH CAROLINA

CITY           SKY/WX    TMP DP  RH WIND       PRES   REMARKS
RICHMOND       PTSUNNY   77  61  57 E6        29.98S
CHESTERFIELD*  MOCLDY    77  57  50 CALM      29.99F
PETERSBURG*    MOSUNNY   76  61  57 SW7       29.99S
HANOVER        MOSUNNY   79  61  53 CALM      30.00F
TAPPAHANNOCK*  PTSUNNY   76  56  50 NE5       30.00S
CHARLOTTSVILLE CLOUDY    73  61  65 NE5       30.00F
ORANGE*        CLOUDY    72  61  68 CALM      30.02S
LOUISA*        MOSUNNY   73  63  68 NE5       29.99F
FARMVILLE*     CLOUDY    77  61  57 S5        29.97F
CREWE*         PTCLDY    75  63  65 S3        29.99F
FORT PICKETT*  CLEAR     75  62  64 SW5       30.00F
LUNENBURG*     CLEAR     73  63  72 CALM      30.01S
SOUTH HILL*    PTSUNNY   75  64  69 CALM      30.06S
LAWRENCEVILLE* MOCLDY    74  65  73 NW5       30.00S
ROANOKE RAPIDS MOCLDY    73  63  68 NW3       29.99F
RALEIGH        PTSUNNY   78  61  55 CALM      30.00S
$$

VAZ088>098-012100-
SOUTHEAST VIRGINIA

CITY           SKY/WX    TMP DP  RH WIND       PRES   REMARKS
NORFOLK        SUNNY     74  63  68 VRB7      29.98F
VIRGINIA BEACH PTSUNNY   76  63  64 N5        29.98S
NORFOLK NAVAL  MOSUNNY   75  63  66 NE12      30.00S
WEST POINT*    MOSUNNY   75  60  58 NE3       30.00S
NEWPORT NEWS   MOSUNNY   78  62  57 NE8       29.99S
LANGLEY AFB    SUNNY     74  63  66 NE9       29.99F
FORT EUSTIS    MOSUNNY   76  76 100 NE7       29.97S
WILLIAMSBURG*  SUNNY     77  66  69 CALM      29.99S
HR EXEC AP*    CLEAR     75  63  64 NE8       30.00S
FRANKLIN*      SUNNY     79  61  53 N3        29.98S
WAKEFIELD      PTSUNNY   78  61  55 CALM      29.97F
$$

VAZ020-022-025-037-045-012100-
WEST CENTRAL AND SOUTHWEST VIRGINIA

CITY           SKY/WX    TMP DP  RH WIND       PRES   REMARKS
STAUNTON*      CLOUDY    73  57  56 SE6       30.02S
HOT SPRINGS VA PTSUNNY   65  41  41 SW7       30.09F
LYNCHBURG      MOSUNNY   75  61  61 S7        30.01F
DANVILLE       PTSUNNY   75  62  64 VRB5      30.01F
SOUTH BOSTON*  NOT AVBL
MARTINSVILLE   PTSUNNY   77  63  63 SE5       30.03S
ROANOKE        PTSUNNY   74  61  63 SE10      30.01F
BLACKSBURG     PTSUNNY   75  57  53 NW6       30.04F
DUBLIN*        SUNNY     79  51  37 W8        30.04S
MARION*        MOSUNNY   75  54  46 SW8       30.08S
HILLSVILLE*    MOSUNNY   74  49  41 SW7       30.06S
RICHLANDS*     PTCLDY    74  53  49 NW7       30.07R
WISE*          MOSUNNY   73  46  38 N5        30.08S
ABINGDON*      MOSUNNY   80  49  34 NW8       30.04F
$$

MDZ021>025-VAZ099-100-012100-
SOUTHERN MARYLAND AND THE DELMARVA PENINSULA

CITY           SKY/WX    TMP DP  RH WIND       PRES   REMARKS
PATUXENT RIVER MOSUNNY   73  60  63 N9        30.00F
BAY BRIDGE APT   N/A     72  57  60 NW6       30.01S
LEONARDTOWN    SUNNY     72  59  64 NE3       30.02S
DOVER          PTSUNNY   71  59  66 NE2       29.98F
GEORGETOWN     CLOUDY    71  57  61 NE14      30.01S
EASTON         PTSUNNY   73  63  68 NE6       30.04F
CAMBRIDGE      MOSUNNY   73  59  60 NW3       29.99F
SALISBURY      MOSUNNY   76  59  55 N9        29.99S
OCEAN CITY     CLOUDY    69  60  73 NE12      29.99S
WALLOPS ISLAND PTSUNNY   71  63  75 E15       29.98F
ACCOMACK*      CLOUDY    70  61  73 CALM      29.99S
$$

NCZ012>017-030>032-012100-
EASTERN NORTH CAROLINA

CITY           SKY/WX    TMP DP  RH WIND       PRES   REMARKS
ELIZABETH CITY MOSUNNY   77  63  61 NE9       29.97S
AHOSKIE*       MOSUNNY   76  63  62 CALM      29.98F
EDENTON*       MOSUNNY   76  63  62 CALM      29.97S
CURRITUCK*     SUNNY     75  59  57 NE8       29.98S
KILL DEVIL HLS MOSUNNY   73  64  74 N10       29.96S
MANTEO         MOSUNNY   73  63  70 N13       29.98S
CAPE HATTERAS  SUNNY     73  64  73 N9G21     29.96S
TARBORO*       MOCLDY    79  64  59 NE6       29.99F
GOLDSBORO      MOSUNNY   80  67  65 CALM      29.96F
WASHINGTON     PTSUNNY   78  64  61 N9        29.98S
GREENVILLE     MOSUNNY   79  63  57 N6        30.00S
NEW BERN       PTSUNNY   82  63  52 N9        29.97F
WILMINGTON     MOSUNNY   82  64  54 N6        29.96F
$$

VAZ048-012100-
ELSEWHERE

CITY           SKY/WX    TMP DP  RH WIND       PRES   REMARKS
HARRISBURG PA  MOSUNNY   73  59  61 S3        30.01F
BALTIMORE      PTSUNNY   72  58  61 VRB6      30.01S
ANNAPOLIS      MOSUNNY   72  58  61 NW5       30.01S
ANDREWS AFB    MOSUNNY   72  59  65 VRB1      30.01F
WILMINGTON DE  PTSUNNY   74  56  53 N8        30.00F
PHILADELPHIA   PTSUNNY   71  57  61 NE9       30.01S
WILDWOOD NJ*   CLOUDY    68  59  73 E6        30.01S
ATLANTIC CITY  CLOUDY    66  62  87 NE12      30.00S
HENDERSON NC   PTSUNNY   72  62  72 N5        30.01F
GREENSBORO     PTSUNNY   76  63  64 E6        30.00F
ROCKY MOUNT    MOSUNNY   79  63  57 NW5       29.99S
FAYETTEVILLE   MOSUNNY   81  64  56 NE5       29.97F
CHARLOTTE      PTSUNNY   82  53  36 CALM      29.98F
$$

VAZ100-012100-
MARINE

STATION/POSITION TIME  TEMP    WIND        PRES    WAVE   SWELL
                       AIR SEA DIR/SP/G            HT/PER HT/PER
                 (UTC) (F)     (DEG/KT/KT) (MB)    (FT/S) (FT/S)
44066 TX TWR #4  2000   64 70  360/ 21/ 23 1013.7F   5/ 6   2/12
CAPE MAY NJ      2000   70 74  340/  5/  7 1015.3S
LEWES DE         2000   68 71  330/  8/  9 1015.5F
15NM E FENWICK I 2000   67 70              1015.0R   5/ 6
OCEAN-CITY-INLET 2000   69 71   30/  7/ 11 1015.2S
WACHAPREAGUE VA  2000   69 74   40/  8/ 12 1015.3R
THOMAS POINT MD  2000   69 72   20/  6/  7 1017.2F
GOOSES REEF MD   2000   69      20/ 10/ 10 1016.5F
COVE POINT MD    2000   68     350/ 10/ 11 1015.9S
SOLOMONS ISLAND  2000      73                N/A
BISHOPS HEAD MD  2000   72 74   10/  6/  9 1015.3F
PINEY POINT MD   2000           70/  4/  6   N/A
POTOMAC MD       2000   71      40/  6/  8 1015.4S
CAMBRIDGE MD     2000   72 71   CALM  /  2 1015.5F
LEWISETTA VA     2000   72 72   60/  4/  6 1015.4F
RAPPAHANNOCK LGT 2000          340/ 12/ 14 1016.0S
STINGRAY PT      2000   71      20/ 10/ 12   N/A
YORK RVR RNG VA  2000   72      20/  7/  8 1015.0S
YORKTOWN VA      2000   73 74   70/  7/  9 1015.1F
JAMESTOWN VA     2000   73     100/  2/  6   N/A
DOMINION TERM VA 2000   74      60/  6/ 10 1015.4S
KIPTOPEKE VA     2000      77  340/ 13/ 14   N/A
CHES BAY BRIDGE  2000   70 72  340/  9/  9 1015.0S
CHESAPEAKE LGHT  1900   69     360/  9/ 10 1015.7F
WILLOUBY STN VA  2000   70      50/ 11/ 12 1014.2F
S CRANEY ISL VA  2000           20/  7/  9 1015.1F
CAPE HENRY BUOY  1900      73                N/A     3/13   2/13
1ST LANDING BUOY 2000   71     350/  8/ 10 1015.0F
CAPE CHARLES BUO 2000      73                N/A     3/ 5   2/ 5
OFFSHORE WE BUOY 1900      72                N/A     4/ 5   3/ 5
64NM E OF VA BCH 2000   70 71   10/ 16/ 17 1013.9R   4/ 6   2/14
DUCK PIER NC     2000   70 73   10/ 13/ 14 1014.2F
44100 DUCK FRF   2000      72                N/A     3/ 5
44056 DUCK FRF   1900                        N/A     3/ 5
OREGON INLET NC  2000   72 73  350/ 12/ 15 1014.7S
HATTERAS NC      2000   72 74   20/ 16/ 19 1014.8S
DIAMOND SHLS NC  2000   72     350/ 17/ 21 1014.0S   4/ 7   3/ 7
CAPE LOOKOUT NC  2000   75      50/  8/  9 1014.4F
$$


USA.gov is the U.S. government's official web portal to all federal, state and local government web resources and services.